Regional Weather Roundup
Issued by NWS New Orleans/Baton Rouge, LA

Home | Current Version | Previous Version | Text Only | Print | Product List | Glossary On
Versions: 1 2 3 4 5 6 7 8 9 10 11 12 13 14 15 16 17 18 19 20 21 22 23 24 25 26 27 28 29 30 31 32 33 34 35 36 37 38 39 40 41 42 43 44 45 46 47 48 49 50
835
ASUS44 KLIX 192011
RWRLIX
NEW ORLEANS REGIONAL WEATHER ROUNDUP
NATIONAL WEATHER SERVICE NEW ORLEANS LA
300 PM CDT SUN APR 19 2015

NOTE: "FAIR" INDICATES FEW OR NO CLOUDS BELOW 12,000 FEET WITH NO
      SIGNIFICANT WEATHER AND/OR OBSTRUCTIONS TO VISIBILITY.
      SKY/WX - SKY CONDITION AND SIGNIFICANT WEATHER.
      TMP - AIR TEMPERATURE.     DP    - DEWPOINT TEMPERATURE.
      RH  - RELATIVE HUMIDITY.   PRES  - PRESSURE.
      HI  - HEAT INDEX.          WCI   - WIND CHILL INDEX.

*  THESE STATIONS ARE NOT NWS OR FAA STATIONS AND ARE NOT UNDER
   NWS QUALITY CONTROL.

LAZ038-040-048-061>063-065>067-069-192100-
SOUTHEAST LOUISIANA

CITY           SKY/WX    TMP DP  RH WIND       PRES   REMARKS
N.O. AUDUBON     N/A     88  65  45 MISG        N/A
N.O. INTL ARPT MOSUNNY   84  62  47 W10G18    29.79F
N.O. LAKEFRONT SUNNY     84  65  52 NW12      29.79F
SLIDELL        SUNNY     84  61  45 VRB7G16   29.77F
BATON ROUGE    SUNNY     83  62  49 W9        29.78F
BOOTHVILLE     MOSUNNY   79  69  71 SW14      29.82S
BELLE CHASSE   MOSUNNY   84  58  40 SW8G17    29.78F
BOGALUSA*        N/A     85  54  33 NW8G18    29.79S
GALLIANO*      CLEAR     82  69  64 SW14G23   29.81F
NEW ROADS*       N/A     81  62  52 W3        29.79F
GONZALES*        N/A     82  62  50 CALM      29.78F
HAMMOND*       SUNNY     84  55  37 NW8G16    29.79F
HOUMA*         SUNNY     82  61  47 SW15      29.81F
PORT FOURCHON* CLEAR     79  70  73 SW13G20   29.85S

$$

MSZ070-080>082-192100-
SOUTHERN MISSISSIPPI

CITY           SKY/WX    TMP DP  RH WIND       PRES   REMARKS
MCCOMB         SUNNY     81  59  47 W10G18    29.78F
GULFPORT       SUNNY     81  65  58 S10G18    29.77F
BILOXI         SUNNY     80  72  75 S15       29.77F
PASCAGOULA     MOSUNNY   79  69  71 S8G20     29.78F
STENNIS ARPT*  MOSUNNY   82  57  42 MISG      29.77F

$$

COASTAL OBSERVATIONS
LAKE AND NEARSHORE STATIONS

STATION/POSITION TIME  TEMP    WIND        PRES    WAVE
                       AIR SEA DIR/SP/G            HT/PER
                 (UTC) (F)     (DEG/KT/KT) (MB)    (FT/S)
PASCAGOULA       1900   78     230/ 11/ 16 1008.7
WAVELAND YACHT   1900   81 73  210/  9/ 14 1008.5
GRAND ISLE       1900   76 76  230/ 12/ 17 1009.6
SOUTHWEST PASS   1900   75 64  240/ 10/ 10 1010.5
NEW CANAL        1900   80     310/  2/  6 1009.6
SHELL BEACH      1900   82 76  260/ 10/ 17 1008.4

OFFSHORE STATIONS

STATION/POSITION TIME  TEMP    WIND        PRES    WAVE
                       AIR SEA DIR/SP/G            HT/PER
                 (UTC) (F)     (DEG/KT/KT) (MB)    (FT/S)
64 S DAUPHIN ISL 1950   75 75  230/ 10/ 12 1009.9    5/ 7

$$




USA.gov is the U.S. government's official web portal to all federal, state and local government web resources and services.